CAPE
27 25 10 0 9 16 19 11 13 0 0 2 6 14 12 6 6 0 0 0 0 0
17 19 2 0 0 30 49 23 31 17 1 19 14 18 20 0 9 0 0 0 0 0
17 15 9 3 0 0 35 49 49 71 7 33 20 26 30 22 12 0 1 4 6 8
22 2 4 0 2 0 0 43 87 28 20 7 38 52 38 26 19 13 31 30 20 12
5 0 0 16 17 12 20 46 77 40 13 91 40 33 28 36 26 47 41 37 50 3
1 0 0 6 6 8 32 73 64 59 55 58 30 40 38 68 47 35 30 38 52 0
0 0 0 0 0 0 14 34 9 0 0 4 10 27 43 49 45 36 33 48 32 0
4 0 0 0 0 0 8 25 3 0 0 0 1 25 53 24 25 15 27 44 36 5
3 0 0 0 0 2 13 0 23 10 18 4 10 23 30 14 41 31 24 15 18 17
0 0 0 0 0 0 0 0 0 3 11 22 6 7 13 26 30 7 8 26 1 30
0 0 0 0 0 0 3 0 0 0 1 15 1 18 8 29 2 4 0 27 5 15
0 5 18 4 0 0 0 0 0 0 1 2 20 10 0 2 1 2 0 24 32 21
1 0 4 0 0 0 0 8 0 6 5 10 6 12 0 0 0 0 0 15 31 26
6 6 0 0 1 0 8 4 0 1 4 0 23 0 2 0 0 0 28 25 33 18
CIN
-41 -62 -63 -0 -57 -44 -54 -57 -46 -0 -0 -34 -37 -25 -33 -35 -28 -0 -0 -0 -0 -0
-56 -46 -33 -0 -0 -39 -43 -57 -43 -42 -36 -37 -38 -33 -30 -0 -24 -0 -3 -0 -0 -0
-42 -31 -44 -68 -0 -0 -43 -41 -39 -34 -27 -34 -34 -35 -27 -28 -29 -0 -10 -20 -45 -34
-47 -54 -49 -0 -41 -0 -0 -89 -47 -49 -47 -48 -32 -32 -32 -32 -28 -27 -30 -41 -40 -37
-46 -0 -4 -47 -40 -61 -90 -95 -63 -67 -68 -39 -30 -45 -31 -23 -30 -18 -32 -37 -27 -20
-46 -0 -0 -43 -49 -85 -66 -52 -54 -62 -34 -43 -34 -54 -37 -24 -26 -24 -33 -40 -27 -29
-0 -0 -0 -0 -0 -6 -62 -55 -63 -0 -39 -59 -38 -50 -40 -28 -26 -19 -27 -39 -36 -0
-16 -0 -0 -0 -0 -0 -28 -7 -17 -25 -0 -0 -18 -44 -41 -43 -31 -25 -31 -40 -43 -36
-18 -0 -0 -0 -0 -33 -16 -5 -10 -18 -14 -29 -37 -41 -36 -47 -30 -15 -22 -29 -47 -45
-0 -0 -0 -0 -0 -0 -0 -0 -0 -43 -34 -40 -54 -63 -51 -52 -33 -32 -30 -26 -48 -31
-0 -0 -0 -9 -0 -9 -38 -0 -0 -7 -8 -62 -26 -46 -62 -42 -35 -20 -0 -31 -36 -49
-0 -29 -30 -19 -0 -0 -0 -0 -0 -9 -40 -48 -43 -52 -0 -45 -15 -47 -0 -29 -22 -37
-17 -0 -27 -0 -0 -1 -1 -23 -30 -25 -14 -51 -46 -46 -0 -0 -0 -0 -0 -24 -20 -28
-38 -33 -0 -0 -24 -0 -19 -21 -0 -4 -6 -4 -35 -0 -69 -0 -0 -14 -26 -28 -33 -29
Wind_Speed
21 24 27 29 24 20 20 20 20 19 18 20 20 25 20 15 18 22 24 24 24 30
24 25 28 29 25 22 19 19 20 19 21 18 20 17 20 16 20 23 24 24 29 28
25 26 28 27 27 26 22 21 19 20 19 22 25 20 21 19 22 23 24 26 26 27
24 26 25 25 28 29 28 21 16 11 19 24 23 25 17 24 25 23 23 23 23 24
25 27 24 25 27 30 31 18 9 9 19 28 26 27 23 24 19 16 22 22 20 23
29 25 25 25 26 29 24 3 1 3 21 29 27 26 25 20 15 19 20 20 20 21
27 26 27 30 32 31 30 20 12 24 29 30 28 25 25 26 6 20 19 19 18 18
26 27 28 34 35 34 33 17 20 26 30 32 31 26 26 12 6 20 20 17 17 15
27 29 31 35 34 30 27 22 22 25 26 25 27 27 27 25 7 21 21 21 18 16
31 30 32 34 32 29 26 23 21 18 18 23 27 27 28 19 7 15 16 18 16 14
32 30 32 32 31 29 26 25 23 21 19 22 24 26 29 10 6 12 15 16 16 16
32 29 31 31 30 29 27 25 23 23 22 23 24 25 21 1 8 17 20 17 19 20
30 30 30 31 29 28 26 22 21 21 21 21 26 26 29 4 16 20 20 19 23 24
30 29 30 30 27 26 22 21 20 19 20 20 17 20 30 2 17 18 18 22 21 18
Wind_Direction
350 344 340 333 328 320 312 310 314 319 321 317 323 308 318 323 316 307 312 315 318 290
350 345 340 340 334 323 313 314 314 316 311 316 311 329 319 322 308 305 310 316 281 296
355 351 344 342 340 332 320 310 308 306 309 303 296 313 308 311 302 302 307 292 286 289
353 351 351 348 339 334 327 315 308 303 306 295 295 288 313 289 285 297 298 287 293 296
351 350 353 351 344 337 327 324 298 306 303 276 279 273 290 286 299 318 280 286 302 294
352 355 357 355 350 344 346 337 280 242 283 256 262 271 267 288 306 287 287 281 295 298
355 358 358 353 347 341 336 338 335 287 251 242 254 264 253 250 349 268 279 273 294 280
355 357 357 345 339 334 331 341 305 275 250 242 237 254 244 289 346 263 253 270 278 219
354 351 352 341 331 334 339 325 294 256 266 250 241 242 229 199 93 243 242 263 259 199
348 349 348 337 325 319 317 297 302 278 259 247 240 235 218 167 301 274 268 263 277 286
347 350 345 337 318 312 303 292 283 273 274 250 245 232 216 125 306 283 277 278 274 251
350 354 345 333 317 308 303 295 277 276 263 258 240 232 161 341 291 261 248 265 248 228
355 356 346 329 314 309 299 297 284 279 262 261 233 229 182 279 265 251 242 242 220 214
355 357 346 327 316 310 304 301 293 281 269 260 266 247 184 241 254 245 243 230 232 239